User: anonymous   Login
Location: Unspecified
(0.0000°N, 0.0000°E)
Time: 01:48:41
(UTC+00:00)
Language:

CBERS-1 - Orbit

View from above orbital plane
View from above orbital plane
View from above satellite
View from above satellite

Ground track
Ground track

The orbit data is extracted from the following two-line orbital elements,

1 25940U 99057A   18054.43775753  .00000017  00000-0  21097-4 0  9990
2 25940  98.5181 355.6509 0004819 349.4237  10.6846 14.35420626961870
Epoch (UTC): 23 February 2018 10:30:22
Eccentricity: 0.0004819
inclination: 98.5181°
perigee height: 770 km
apogee height: 777 km
right ascension of ascending node: 355.6509°
argument of perigee: 349.4237°
revolutions per day: 14.35420626
mean anomaly at epoch: 10.6846°
orbit number at epoch: 96187

The dashed part of the orbit path shows where the satellite is in the earth's shadow,  

DLR